Overview Statistics Trail Chart Weather Telemetry Raw packets
 

This is the latest recevied weather packets stored in our database for station/object KB9PVH-8. If no packets are shown the sender has not sent any weather packets the latest 10 day(s).

<< 1 2 3 4 >>
Time Temp. Humidity Pressure Rain* Wind** Luminosity Snow
1788653166 22.78° C - - 0 mm 0.45 m/s, ° - -
1788653084 22.78° C - - 0 mm 0.45 m/s, ° - -
1788652244 23.33° C - - 0 mm 0.45 m/s, ° - -
1788651404 23.89° C - - 0 mm 0.89 m/s, ° - -
1788650603 23.89° C - - 0 mm 0.89 m/s, ° - -
1788650564 23.89° C - - 0 mm 0.89 m/s, ° - -
1788649724 25° C - - 0 mm 1.79 m/s, ° - -
1788648884 25° C - - 0 mm 3.58 m/s, ° - -
1788648045 26.11° C - - 0 mm 3.58 m/s, ° - -
1788647277 25.56° C - - 0 mm 8.49 m/s, ° - -
1788647206 25.56° C - - 0 mm 8.49 m/s, ° - -
1788646364 25° C - - 0 mm 2.68 m/s, ° - -
1788645524 26.67° C - - 0 mm 2.68 m/s, ° - -
1788644684 25.56° C - - 0 mm 13.41 m/s, ° - -
1788643814 26.11° C - - 0 mm 3.58 m/s, ° - -
1788642974 26.11° C - - 0 mm 8.94 m/s, ° - -
1788642134 26.11° C - - 0 mm 9.39 m/s, ° - -
1788641294 25° C - - 0 mm 23.69 m/s, ° - -
1788640454 25° C - - 0 mm 11.18 m/s, ° - -
1788639665 25.56° C - - 0 mm 10.28 m/s, ° - -
1788639614 25.56° C - - 0 mm 10.28 m/s, ° - -
1788638774 25.56° C - - 0 mm 9.39 m/s, ° - -
1788637934 25.56° C - - 0 mm 10.73 m/s, ° - -
1788637095 25.56° C - - 0 mm 13.86 m/s, ° - -
1788636224 26.67° C - - 0 mm 16.54 m/s, ° - -

* Rain latest hour (hover to see other rain measurements)
** Current wind speed in m/s (hover to see current wind gust speed)